Wind_Speed
32 34 36 34 32 33 35 26 27 23 20 15 15 20 19 23 30 35 23 26 29 32
31 35 35 31 28 23 28 30 26 19 24 23 27 27 30 26 22 20 25 28 29 31
32 33 31 21 15 18 21 18 13 21 19 21 22 13 14 16 20 25 27 30 32 34
31 31 24 16 13 15 16 12 18 18 14 13 13 14 19 23 26 29 32 33 35 36
29 24 18 15 13 13 12 8 10 11 11 14 18 21 24 27 30 32 34 34 33 34
24 17 15 14 14 13 10 11 9 12 16 19 22 26 27 30 30 30 31 32 32 34
16 14 14 13 11 9 7 12 15 17 21 24 26 28 31 30 31 33 31 31 30 31
16 16 13 9 9 11 13 11 16 22 24 25 29 29 31 31 30 31 34 37 40 42
14 15 17 18 21 8 9 13 20 23 26 28 30 30 27 28 31 34 38 43 46 48
12 12 13 7 4 8 14 20 24 25 28 29 24 25 27 32 37 40 42 38 35 33
7 9 8 10 13 19 23 24 27 27 25 26 26 30 32 34 40 36 33 29 29 31
9 13 19 26 25 23 25 26 25 26 27 28 27 29 36 35 30 28 29 31 33 32
18 16 17 20 22 23 22 24 25 25 23 24 32 34 29 23 23 28 29 29 29 27
19 20 21 20 19 21 22 23 23 25 27 30 28 25 22 21 20 23 28 29 30 30
Wind_Direction
308 306 308 307 303 290 253 226 216 204 195 199 240 250 252 273 269 281 288 291 288 287
304 304 308 308 301 271 231 204 195 203 242 258 267 296 296 286 282 294 291 288 287 286
310 308 307 296 270 230 203 201 240 253 271 272 318 300 300 303 299 292 291 290 288 285
308 298 288 267 233 214 224 260 289 314 329 325 315 316 301 291 290 291 291 289 286 284
295 277 258 246 240 240 255 306 314 336 319 315 304 298 295 295 295 293 291 291 290 288
279 263 255 244 241 249 267 312 329 325 323 313 304 301 301 300 299 296 295 293 290 287
255 238 222 224 240 258 279 316 321 325 313 303 299 299 300 296 294 295 292 289 287 285
227 217 220 235 235 265 316 310 309 307 299 296 301 301 297 299 296 291 288 287 285 284
238 246 247 262 312 347 280 285 294 300 304 303 301 300 299 295 291 290 289 288 288 287
313 324 351 337 288 271 287 299 304 304 303 305 305 300 293 292 295 296 296 294 295 295
310 321 321 319 312 303 303 306 305 307 310 306 301 299 300 301 303 300 295 294 293 294
315 329 318 310 301 307 308 308 310 308 307 307 306 304 306 307 304 302 300 298 298 298
323 312 313 310 311 311 310 309 308 310 312 307 307 310 311 309 310 304 307 311 309 307
318 316 315 316 316 316 312 312 314 310 310 314 318 318 318 316 310 315 317 315 314 314
Height
1482 1478 1475 1471 1467 1462 1462 1460 1463 1464 1462 1462 1461 1460 1461 1462 1463 1464 1465 1465 1465 1464
1475 1472 1468 1462 1459 1456 1454 1453 1452 1454 1458 1457 1458 1459 1459 1459 1459 1458 1458 1457 1457 1457
1469 1464 1461 1459 1456 1453 1452 1452 1453 1452 1453 1455 1455 1456 1455 1454 1453 1452 1451 1450 1449 1449
1462 1459 1455 1453 1452 1451 1451 1451 1450 1450 1451 1452 1452 1450 1449 1449 1447 1445 1444 1443 1441 1439
1457 1453 1451 1449 1449 1449 1448 1448 1448 1448 1448 1447 1446 1445 1444 1441 1440 1437 1435 1434 1432 1429
1452 1449 1448 1446 1445 1444 1445 1445 1445 1444 1443 1442 1441 1438 1436 1434 1431 1429 1427 1425 1423 1421
1449 1447 1445 1445 1444 1443 1442 1441 1441 1440 1438 1437 1434 1431 1428 1426 1423 1421 1419 1417 1415 1413
1445 1445 1443 1442 1441 1440 1440 1438 1437 1436 1433 1431 1428 1424 1421 1419 1416 1413 1410 1409 1406 1404
1443 1442 1440 1439 1436 1435 1436 1434 1432 1430 1427 1424 1421 1417 1414 1411 1408 1405 1401 1397 1393 1390
1439 1437 1435 1434 1434 1433 1432 1429 1426 1423 1420 1417 1414 1411 1408 1405 1400 1395 1390 1385 1382 1378
1441 1439 1438 1436 1433 1431 1427 1424 1420 1417 1414 1410 1408 1405 1400 1396 1390 1384 1380 1377 1374 1370
1440 1438 1436 1433 1429 1425 1422 1418 1415 1411 1408 1404 1401 1398 1392 1386 1380 1375 1372 1369 1365 1362
1439 1435 1432 1428 1424 1421 1417 1413 1409 1406 1403 1399 1395 1390 1384 1379 1374 1369 1365 1360 1356 1353
1435 1431 1427 1424 1420 1416 1412 1408 1405 1401 1398 1394 1388 1382 1378 1373 1369 1364 1358 1353 1348 1344